Location: Cuiry
(49.3858°N, 3.7708°E)
Time: 23:41:46
(UTC+00:00)

DMSP B5D1-3 - Pass Details

Date: 12 January 2026
Orbit: 759 x 772 km, 98.5° (Epoch: 17 February)

Event Time Altitude Azimuth Distance (km) Brightness Sun altitude
Exits shadow 18:40:19 63° 65° (ENE) 849 4.4 -23.7°
Maximum altitude 18:40:50 68° 103° (ESE) 820 4.3 -23.8°
Drops below altitude 10° 18:45:51 10° 186° (S) 2,289 7.1 -24.6°
Sets 18:48:09 0° 189° (S) 3,212 7.9 -25.0°
